CAPE
3 34 41 24 42 40 80 99 286 461 453 261 128 279 393 315 460 396 267 139 10 23 0 133 288 598 841 782 1227 1021 1445 886 1329
0 3 37 57 46 53 68 69 426 654 476 326 331 547 785 481 554 393 258 222 196 61 0 14 359 496 670 822 1024 1003 1116 1125 853
0 0 5 16 61 61 85 113 426 913 571 379 267 745 712 544 567 593 274 93 2 0 0 0 71 424 570 922 730 477 971 840 674
0 0 0 1 39 94 163 186 260 544 812 653 535 902 575 527 682 562 375 227 155 49 0 63 142 76 468 950 728 866 976 902 533
33 11 0 0 19 81 48 87 198 429 402 257 814 495 731 616 394 420 539 509 266 2 0 157 82 9 656 770 792 1010 707 734 1031
208 52 0 37 177 53 83 105 127 155 247 463 614 442 903 599 557 451 413 305 436 305 305 615 666 756 615 774 912 837 836 1108 684
409 195 51 109 240 167 123 31 16 9 116 98 418 677 553 684 521 564 539 491 196 552 705 506 422 805 744 493 592 356 849 962 906
338 202 125 256 210 186 153 52 14 2 0 22 33 345 481 413 273 510 660 533 418 663 471 657 508 666 680 182 60 17 69 294 858
812 669 511 467 456 204 39 31 47 0 0 0 161 256 262 298 248 283 364 310 379 355 345 352 354 447 427 0 0 0 0 20 340
2 447 570 709 804 595 363 94 1 49 7 79 163 184 169 166 125 96 141 121 197 256 125 147 117 172 25 0 0 0 0 0 65
88 44 30 178 387 412 496 823 363 359 244 307 267 228 264 250 154 104 76 79 73 110 113 96 100 25 0 0 0 0 0 0 34
3 4 0 2 4 2 2 87 574 563 429 349 311 336 344 267 150 62 18 0 0 49 38 4 0 0 0 0 0 0 0 43 79
0 0 0 1 4 2 1 2 1 254 428 421 458 352 281 230 110 24 0 0 0 0 0 0 0 0 0 0 0 0 0 6 74
2 2 1 2 4 3 3 2 1 0 2 2 0 211 295 236 117 32 15 1 0 0 0 0 0 0 0 0 0 0 0 0 0
3 2 2 2 3 3 2 2 2 2 2 2 1 1 2 2 7 0 0 1 0 0 0 0 0 0 0 0 0 0 0 0 0
2 3 1 0 0 0 0 0 0 0 1 0 0 0 0 0 0 0 0 0 0 0 0 0 0 0 0 0 0 0 0 0 0
0 0 0 0 0 0 0 0 0 0 0 0 0 0 0 0 0 0 0 0 0 0 0 0 0 0 0 0 0 0 0 0 0
0 0 0 0 0 0 0 0 0 0 0 0 0 0 0 0 0 0 0 0 0 0 0 0 0 0 0 0 0 0 0 0 0
0 0 0 0 0 0 0 0 0 0 0 0 0 0 0 0 0 0 0 0 0 0 0 0 0 0 0 0 0 0 0 0 0
0 0 0 0 0 0 0 0 0 0 0 0 0 0 0 0 0 0 0 0 0 0 0 0 0 0 0 0 0 0 0 0 0
CIN
-71 -113 -73 -57 -45 -51 -46 -64 -53 -47 -66 -59 -74 -45 -35 -35 -24 -33 -84 -114 -176 -142 -11 -112 -99 -47 -8 -17 -15 -16 -14 -27 -29
0 -126 -138 -65 -71 -61 -36 -34 -28 -48 -65 -65 -66 -48 -24 -25 -20 -41 -74 -108 -130 -140 0 -109 -79 -62 -15 -11 -8 -8 -9 -15 -22
0 0 -101 -45 -75 -79 -108 -33 -60 -45 -50 -80 -85 -44 -25 -26 -20 -7 -48 -100 -2 0 0 0 -192 -76 -36 -9 -9 -19 -8 -16 -26
0 0 0 -51 -61 -76 -49 -53 -50 -31 -32 -64 -39 -18 -28 -19 -14 -18 -39 -65 -95 -103 0 -160 -136 -119 -35 -8 -15 -15 -13 -19 -23
-125 -193 0 0 -190 -145 -88 -88 -80 -77 -40 -61 -31 -35 -12 -14 -18 -17 -16 -27 -42 -5 0 -96 -112 -26 -23 -17 -16 -12 -18 -17 -13
-138 -141 0 -135 -93 -109 -121 -138 -130 -99 -77 -74 -45 -37 -12 -17 -19 -15 -14 -14 -22 -30 -33 -22 -22 -22 -21 -17 -17 -18 -26 -18 -26
-131 -172 -212 -143 -96 -120 -157 -224 -160 -61 -70 -100 -38 -21 -29 -14 -13 -12 -13 -16 -18 -20 -17 -16 -14 -10 -11 -21 -20 -54 -31 -12 -16
-167 -130 -131 -96 -133 -128 -141 -236 -250 -123 0 -101 -136 -25 -20 -27 -20 -25 -22 -16 -12 -9 -13 -15 -13 -8 -12 -68 -128 -35 -150 -57 -22
-51 -42 -48 -67 -73 -120 -240 -235 -205 0 0 0 -76 -46 -36 -48 -45 -27 -23 -31 -29 -22 -16 -12 -18 -7 -17 0 0 0 0 -132 -44
0 -101 -69 -26 -29 -44 -85 -217 -23 -227 -79 -212 -70 -58 -62 -87 -60 -44 -30 -34 -26 -22 -39 -57 -16 -46 -151 0 0 0 0 0 -120
-109 -227 -148 -199 -143 -143 -99 -23 -129 -90 -106 -37 -33 -90 -83 -82 -69 -78 -76 -64 -30 -20 -31 -28 -31 -118 0 0 0 0 0 0 -83
-56 -50 0 0 0 -5 -69 -234 -54 -9 -11 -15 -30 -38 -47 -63 -93 -105 -109 -5 0 -34 -47 -82 -24 0 0 0 0 0 0 -150 -144
0 0 0 0 0 0 0 0 -14 -99 -24 -18 -10 -33 -47 -58 -84 -144 0 0 0 0 0 0 0 0 0 0 0 0 0 -157 -93
0 0 0 0 0 0 0 0 0 -0 0 -54 0 -67 -29 -25 -69 -141 -228 -92 0 0 0 0 0 0 0 0 0 0 0 0 0
0 0 0 0 0 0 0 0 0 0 0 0 0 0 -65 -57 -50 0 0 -83 -5 0 0 0 0 0 0 0 0 0 0 0 0
0 0 0 0 0 0 0 0 0 0 0 0 0 0 0 0 0 0 0 0 0 0 0 0 0 0 0 0 0 0 0 0 0
0 0 0 0 0 0 0 0 0 0 0 0 0 0 0 0 0 0 0 0 0 0 0 0 0 0 0 0 0 0 0 0 0
0 0 0 0 0 0 0 0 0 0 0 0 0 0 0 0 0 0 0 0 0 0 0 0 0 0 0 0 0 0 0 0 0
0 0 0 0 0 0 0 0 0 0 0 0 0 0 0 0 0 0 0 0 0 0 0 0 0 0 0 0 0 0 0 0 0
0 0 0 0 0 0 0 0 0 0 0 0 0 0 0 0 0 0 0 0 0 0 0 0 0 0 0 0 0 0 0 0 0
Wind_Speed
34 22 24 18 34 24 14 11 11 9 10 10 10 15 21 5 5 8 15 14 15 15 16 21 19 20 20 20 20 21 20 19 18
32 26 20 23 26 18 21 13 12 9 7 6 6 9 11 9 14 6 9 12 11 15 9 15 19 21 22 20 19 19 21 20 19
26 21 21 18 17 14 14 14 15 10 7 6 9 5 5 2 2 2 5 8 9 8 10 10 25 24 22 22 14 16 18 13 18
30 31 22 22 19 13 11 16 15 13 10 5 5 5 5 4 4 5 1 3 5 8 12 15 17 24 23 9 7 20 11 13 20
36 31 32 24 23 11 15 18 15 16 13 13 6 5 6 5 4 2 2 4 5 6 10 10 16 17 12 10 10 12 12 17 15
38 35 23 17 16 17 13 11 9 13 19 27 10 7 7 6 8 6 6 5 5 4 5 6 7 5 6 8 9 14 15 15 15
24 25 21 16 14 14 13 10 8 14 14 17 28 8 7 7 5 5 2 4 1 1 3 1 4 2 5 7 15 18 19 17 16
7 14 12 10 9 8 10 11 9 9 11 41 33 12 10 11 8 13 14 9 7 6 6 5 9 10 12 13 14 17 20 20 19
6 4 5 8 6 7 8 10 10 9 6 15 30 21 19 13 17 18 12 17 23 13 12 11 14 15 15 13 16 19 20 20 19
18 6 10 12 9 7 6 6 8 8 9 12 7 20 24 17 12 16 19 12 9 14 18 24 20 14 13 15 18 21 22 21 20
14 17 15 14 12 12 13 7 3 6 9 13 8 6 8 13 15 15 17 19 19 14 5 10 9 12 13 15 19 20 22 22 18
16 15 16 18 17 19 17 16 14 9 8 9 7 10 10 8 11 14 15 16 14 15 9 8 11 13 14 16 20 23 21 18 12
16 18 17 18 19 18 17 17 12 10 10 10 10 6 5 6 9 8 10 10 11 11 8 8 10 10 12 14 16 18 17 16 14
16 16 16 18 18 17 17 15 11 10 11 10 11 10 6 6 5 6 7 9 10 9 8 8 8 10 11 12 14 16 15 16 14
20 20 17 18 17 16 15 15 12 11 12 12 12 9 10 11 8 7 8 9 11 11 10 9 10 9 10 11 14 14 13 13 13
19 18 16 14 15 14 13 13 13 12 13 12 12 11 13 12 13 12 11 11 12 13 13 13 12 10 11 10 11 11 12 13 13
14 15 13 13 12 13 14 13 13 13 13 12 11 11 10 10 11 12 13 14 15 12 13 13 13 11 11 9 10 12 14 14 14
10 10 11 11 12 13 15 15 14 14 13 12 12 12 13 12 11 12 12 13 13 14 13 13 14 15 11 10 13 15 15 16 17
6 7 8 10 11 11 12 13 13 14 14 14 13 14 15 15 15 15 14 14 14 15 14 14 13 14 14 15 14 15 18 19 21
9 8 8 8 9 11 14 14 14 15 15 14 14 16 16 17 18 14 14 14 14 16 17 18 17 17 18 19 20 20 22 23 24
Wind_Direction
229 231 235 225 222 247 230 185 169 158 145 141 140 148 161 104 72 88 128 116 124 131 142 227 257 241 185 188 188 196 219 249 254
229 233 236 242 236 249 239 220 186 184 170 164 156 148 142 131 135 51 86 112 108 145 352 298 264 244 208 184 172 181 214 220 253
231 228 232 231 223 235 216 211 241 215 200 168 160 177 178 177 128 44 72 85 89 56 57 244 228 211 215 204 130 144 169 327 276
172 185 178 185 232 230 217 231 234 244 222 239 241 252 225 243 263 287 351 59 40 79 111 127 152 193 203 320 46 197 355 335 263
194 179 180 175 173 223 226 241 248 248 244 255 221 234 196 190 176 189 164 138 116 107 125 121 150 162 141 332 341 334 338 307 318
204 189 165 163 170 169 204 228 233 245 256 253 238 181 186 189 175 166 161 151 141 126 122 115 111 1 360 342 339 313 312 331 319
162 163 158 161 166 169 174 203 227 255 258 271 257 215 181 202 200 172 208 173 211 229 152 15 344 13 352 342 307 300 301 314 320
174 162 160 162 179 182 185 192 188 196 285 239 247 239 240 255 250 280 287 308 298 294 275 296 304 306 307 312 314 306 302 304 306
288 203 199 237 219 199 180 181 186 202 176 177 240 252 251 269 271 274 296 297 282 282 298 298 293 294 299 308 309 306 306 307 304
300 289 279 267 259 246 238 198 194 221 180 169 201 253 248 259 278 290 298 304 291 287 281 279 291 299 304 302 303 303 302 306 304
332 323 308 284 278 286 282 273 226 203 188 175 193 201 263 274 284 296 303 299 293 284 289 281 291 297 305 307 307 308 305 304 308
334 334 324 298 294 283 284 278 269 255 242 220 226 263 274 288 297 301 309 305 302 294 296 298 297 304 308 304 304 308 312 310 319
325 331 330 304 302 304 304 300 290 277 271 269 280 288 296 298 303 320 325 334 325 319 317 307 311 318 322 315 315 311 319 317 307
323 332 318 298 299 303 305 311 337 335 314 297 289 292 305 311 331 344 349 341 342 344 343 338 330 326 329 326 319 323 328 329 320
308 304 309 304 299 304 314 312 315 315 315 318 315 310 298 294 320 329 325 320 327 334 335 326 323 331 335 332 325 324 327 330 334
302 303 303 313 302 309 323 321 320 321 323 325 319 317 314 310 310 307 305 305 308 322 323 317 317 322 321 325 330 325 327 327 326
299 295 305 306 316 313 310 326 323 319 319 324 324 320 322 324 318 312 311 314 314 317 320 319 318 321 323 323 324 317 313 318 319
313 304 306 313 313 303 307 314 322 323 321 317 315 311 311 312 318 320 321 327 322 322 328 324 320 313 310 309 309 307 314 311 309
5 328 305 302 308 312 316 317 316 317 318 318 317 310 305 303 306 307 309 312 313 324 327 325 325 315 309 311 312 310 309 309 307
340 346 329 316 315 313 310 309 315 318 320 320 318 310 305 304 303 297 307 313 311 306 309 312 310 306 304 302 301 304 304 303 303